Regional Weather Roundup
Issued by NWS Little Rock, AR

Home | Current Version | Previous Version | Graphics & Text | Print | Product List | Glossary On
Versions: 1 2 3 4 5 6 7 8 9 10 11 12 13 14 15 16 17 18 19 20 21 22 23 24 25 26 27 28 29 30 31 32 33 34 35 36 37 38 39 40 41 42 43 44 45 46 47 48 49 50
000
ASUS44 KLZK 292105
RWRLZK

WEATHER ROUNDUP FOR ARKANSAS
NATIONAL WEATHER SERVICE LITTLE ROCK AR
300 PM CST THU JAN 29 2015

NOTE: "FAIR" INDICATES FEW OR NO CLOUDS BELOW 12,000 FEET WITH NO
SIGNIFICANT WEATHER AND/OR OBSTRUCTIONS TO VISIBILITY.

ARZ001-003-010-029-292200-
NORTHWEST ARKANSAS

CITY           SKY/WX    TMP DP  RH WIND       PRES   REMARKS
FAYETTEVILLE   CLOUDY    43  30  60 N13       30.35R
FORT SMITH     MOSUNNY   50  31  48 NW18G25   30.35R
HARRISON       CLOUDY    40  30  67 NW16G26   30.30R
BENTONVILLE    CLOUDY    45  28  53 N16G24    30.35R
ROGERS         CLOUDY    43  29  57 NW12G23   30.35R
SILOAM SPGS    CLOUDY    45  27  49 N17       30.37R
HIGHFILL       CLOUDY    45  29  53 NW16G26   30.34R
SPRINGDALE     CLOUDY    43  30  61 N17G25    30.36R
$$

ARZ004-005-016-292200-
NORTH CENTRAL ARKANSAS

CITY           SKY/WX    TMP DP  RH WIND       PRES   REMARKS
BATESVILLE     CLOUDY    46  34  61 NW14G25   30.26R
FLIPPIN        CLOUDY    43  30  61 NW9G20    30.29S
MTN HOME       CLOUDY    43  30  60 NW13G22   30.28R
$$

ARZ040-041-292200-
WEST CENTRAL ARKANSAS

CITY           SKY/WX    TMP DP  RH WIND       PRES   REMARKS
MENA           PTSUNNY   55  37  50 NW12G20   30.28R
MOUNT IDA      PTSUNNY   57  37  47 NW12G25   30.22R
$$

ARZ009-017-025-026-028-292200-
NORTHEAST ARKANSAS

CITY           SKY/WX    TMP DP  RH WIND       PRES   REMARKS
CORNING        CLOUDY    45  34  65 N16       30.25R
JONESBORO      CLOUDY    48  37  65 NW12G30   30.23R
NEWPORT        CLOUDY    50  37  60 NW24      30.25R
WALNUT RIDGE   CLOUDY    46  32  57 NW24      30.25R
BLYTHEVILLE    CLOUDY    50  37  61 N25       30.21R
NW BLYTHEVILLE CLOUDY    50  37  62 N14G28    30.20
$$

ARZ022-023-033-042-044-292200-
CENTRAL ARKANSAS

CITY           SKY/WX    TMP DP  RH WIND       PRES   REMARKS
LITTLE ROCK    PTSUNNY   62  37  39 N16       30.20R
N LITTLE ROCK  PTSUNNY   58  42  55 N10G17    30.20R
JACKSONVILLE   CLOUDY    58  39  48 N8G18     30.21R
SEARCY         CLOUDY    55  39  54 N14       30.23R
HOT SPRINGS    PTSUNNY   60  38  43 N10G18    30.22R
RUSSELLVILLE   PTSUNNY   54  35  48 N17G29    30.27R
CLINTON        CLOUDY    46  34  61 NW10G20   30.30R
$$

ARZ036-292200-
EAST ARKANSAS

CITY           SKY/WX    TMP DP  RH WIND       PRES   REMARKS
WEST MEMPHIS   PTSUNNY   56  42  59 N15G23    30.18R
$$

ARZ050-053-066-070-073-292200-
SOUTHWEST ARKANSAS

CITY           SKY/WX    TMP DP  RH WIND       PRES   REMARKS
ARKADELPHIA    FAIR      64  40  41 W13       30.22R
CAMDEN         MOSUNNY   72  37  28 MISG      30.16S
TEXARKANA      MOSUNNY   70  38  31 NW13G20   30.20R
EL DORADO      SUNNY     71  42  35 NW14      30.16R
DE QUEEN       PTSUNNY   61  39  44 N10G21    30.24R
$$

ARZ056-057-069-292200-
SOUTHEAST ARKANSAS

CITY           SKY/WX    TMP DP  RH WIND       PRES   REMARKS
PINE BLUFF     PTSUNNY   66  40  38 N10       30.17R
STUTTGART      PTSUNNY   64  39  39 N22       30.18R
MONTICELLO     PTSUNNY   72  43  35 NW9       30.14R

$$




USA.gov is the U.S. government's official web portal to all federal, state and local government web resources and services.